Time,TemperatureF,DewpointF,PressureIn,WindDirection,WindDirectionDegrees,WindSpeedMPH,WindSpeedGustMPH,Humidity,HourlyPrecipIn,Conditions,Clouds,dailyrainin,SoftwareType,DateUTC
2013-03-22 00:00:00,28.2,15.7,29.81,WSW,254,1.0,3.0,59,0.00,,CLR,0.00,VWS V14.00,2013-03-22 04:00:00,
2013-03-22 00:02:00,28.2,15.7,29.81,WSW,254,1.0,3.0,59,0.00,,CLR,0.00,VWS V14.00,2013-03-22 04:02:00,
2013-03-22 00:03:00,28.0,15.5,29.81,WNW,283,0.0,2.0,59,0.00,,CLR,0.00,VWS V14.00,2013-03-22 04:03:00,
2013-03-22 00:04:00,28.0,15.5,29.81,WSW,253,1.0,2.0,59,0.00,,CLR,0.00,VWS V14.00,2013-03-22 04:04:00,
2013-03-22 00:06:00,27.9,15.1,29.81,WSW,250,1.0,2.0,58,0.00,,CLR,0.00,VWS V14.00,2013-03-22 04:06:00,
2013-03-22 00:11:00,28.1,15.2,29.81,West,266,1.0,4.0,58,0.00,,CLR,0.00,VWS V14.00,2013-03-22 04:11:00,
2013-03-22 00:16:00,27.9,14.6,29.81,West,269,1.0,4.0,57,0.00,,CLR,0.00,VWS V14.00,2013-03-22 04:16:00,
2013-03-22 00:21:00,27.8,14.6,29.81,WSW,246,3.0,4.0,57,0.00,,CLR,0.00,VWS V14.00,2013-03-22 04:21:00,
2013-03-22 00:26:00,27.8,14.2,29.81,WNW,285,2.0,4.0,56,0.00,,CLR,0.00,VWS V14.00,2013-03-22 04:26:00,
2013-03-22 00:30:00,27.9,13.8,29.81,WNW,290,0.0,4.0,55,0.00,,CLR,0.00,VWS V14.00,2013-03-22 04:30:00,
2013-03-22 00:31:00,27.9,13.8,29.81,West,267,2.0,2.0,55,0.00,,CLR,0.00,VWS V14.00,2013-03-22 04:31:00,
2013-03-22 00:37:00,27.8,13.8,29.81,WSW,243,2.0,3.0,55,0.00,,CLR,0.00,VWS V14.00,2013-03-22 04:37:00,
2013-03-22 00:42:00,28.0,13.1,29.81,WNW,296,0.0,4.0,53,0.00,,CLR,0.00,VWS V14.00,2013-03-22 04:42:00,
2013-03-22 00:47:00,28.0,13.1,29.81,WNW,294,3.0,6.0,53,0.00,,CLR,0.00,VWS V14.00,2013-03-22 04:47:00,
2013-03-22 00:52:00,27.9,13.0,29.81,WNW,297,3.0,6.0,53,0.00,,CLR,0.00,VWS V14.00,2013-03-22 04:52:00,
2013-03-22 00:57:00,27.8,12.9,29.81,WNW,284,2.0,6.0,53,0.00,,CLR,0.00,VWS V14.00,2013-03-22 04:57:00,
2013-03-22 01:00:00,27.8,12.9,29.81,West,269,1.0,6.0,53,0.00,,CLR,0.00,VWS V14.00,2013-03-22 05:00:00,
2013-03-22 01:02:00,27.8,12.9,29.81,SW,221,2.0,4.0,53,0.00,,CLR,0.00,VWS V14.00,2013-03-22 05:02:00,
2013-03-22 01:07:00,28.0,12.7,29.81,West,276,1.0,4.0,52,0.00,,CLR,0.00,VWS V14.00,2013-03-22 05:07:00,
2013-03-22 01:12:00,27.9,12.6,29.81,SW,217,0.0,4.0,52,0.00,,CLR,0.00,VWS V14.00,2013-03-22 05:12:00,
2013-03-22 01:17:00,27.7,12.8,29.81,West,266,1.0,4.0,53,0.00,,CLR,0.00,VWS V14.00,2013-03-22 05:17:00,
2013-03-22 01:23:00,27.6,12.7,29.81,WSW,245,1.0,4.0,53,0.00,,CLR,0.00,VWS V14.00,2013-03-22 05:23:00,
2013-03-22 01:28:00,27.6,12.7,29.81,SW,236,0.0,4.0,53,0.00,,CLR,0.00,VWS V14.00,2013-03-22 05:28:00,
2013-03-22 01:30:00,27.6,13.1,29.81,West,270,4.0,5.0,54,0.00,,CLR,0.00,VWS V14.00,2013-03-22 05:30:00,
2013-03-22 01:33:00,27.5,13.5,29.81,SW,231,3.0,4.0,55,0.00,,CLR,0.00,VWS V14.00,2013-03-22 05:33:00,
2013-03-22 01:38:00,27.6,13.6,29.81,West,279,1.0,6.0,55,0.00,,CLR,0.00,VWS V14.00,2013-03-22 05:38:00,
2013-03-22 01:43:00,27.4,13.4,29.81,WNW,285,1.0,6.0,55,0.00,,CLR,0.00,VWS V14.00,2013-03-22 05:43:00,
2013-03-22 01:49:00,27.5,13.5,29.81,WNW,285,2.0,6.0,55,0.00,,CLR,0.00,VWS V14.00,2013-03-22 05:49:00,
2013-03-22 01:54:00,27.5,13.5,29.81,West,269,2.0,6.0,55,0.00,,CLR,0.00,VWS V14.00,2013-03-22 05:54:00,
2013-03-22 01:59:00,27.4,13.8,29.81,WNW,288,2.0,6.0,56,0.00,,CLR,0.00,VWS V14.00,2013-03-22 05:59:00,
2013-03-22 02:00:00,27.5,13.9,29.81,WNW,290,2.0,6.0,56,0.00,,CLR,0.00,VWS V14.00,2013-03-22 06:00:00,
2013-03-22 02:04:00,27.7,14.1,29.81,West,266,2.0,5.0,56,0.00,,CLR,0.00,VWS V14.00,2013-03-22 06:04:00,
2013-03-22 02:09:00,27.7,14.1,29.81,West,267,1.0,5.0,56,0.00,,CLR,0.00,VWS V14.00,2013-03-22 06:09:00,
2013-03-22 02:14:00,27.9,14.2,29.81,West,266,3.0,7.0,56,0.00,,CLR,0.00,VWS V14.00,2013-03-22 06:14:00,
2013-03-22 02:20:00,27.9,14.6,29.81,NW,316,2.0,7.0,57,0.00,,CLR,0.00,VWS V14.00,2013-03-22 06:20:00,
2013-03-22 02:25:00,27.9,14.6,29.80,NNW,334,2.0,7.0,57,0.00,,CLR,0.00,VWS V14.00,2013-03-22 06:25:00,
2013-03-22 02:30:00,27.9,15.1,29.80,West,269,2.0,2.0,58,0.00,,CLR,0.00,VWS V14.00,2013-03-22 06:30:00,
2013-03-22 02:35:00,27.8,15.0,29.80,West,280,1.0,3.0,58,0.00,,CLR,0.00,VWS V14.00,2013-03-22 06:35:00,
2013-03-22 02:40:00,27.7,15.3,29.81,WNW,289,0.0,4.0,59,0.00,,CLR,0.00,VWS V14.00,2013-03-22 06:40:00,
2013-03-22 02:45:00,27.6,15.2,29.80,WNW,288,1.0,4.0,59,0.00,,CLR,0.00,VWS V14.00,2013-03-22 06:45:00,
2013-03-22 02:50:00,27.5,15.1,29.80,WSW,250,0.0,4.0,59,0.00,,CLR,0.00,VWS V14.00,2013-03-22 06:50:00,
2013-03-22 02:55:00,27.4,15.4,29.80,West,276,2.0,4.0,60,0.00,,CLR,0.00,VWS V14.00,2013-03-22 06:55:00,
2013-03-22 03:00:00,27.4,15.7,29.80,WSW,253,1.0,4.0,61,0.00,,CLR,0.00,VWS V14.00,2013-03-22 07:00:00,
2013-03-22 03:01:00,27.3,15.3,29.80,NW,323,1.0,2.0,60,0.00,,CLR,0.00,VWS V14.00,2013-03-22 07:01:00,
2013-03-22 03:06:00,27.3,15.6,29.80,SW,222,2.0,3.0,61,0.00,,CLR,0.00,VWS V14.00,2013-03-22 07:06:00,
2013-03-22 03:11:00,27.4,15.7,29.80,WSW,242,2.0,4.0,61,0.00,,CLR,0.00,VWS V14.00,2013-03-22 07:11:00,
2013-03-22 03:16:00,27.5,16.2,29.80,West,277,1.0,4.0,62,0.00,,CLR,0.00,VWS V14.00,2013-03-22 07:16:00,
2013-03-22 03:22:00,27.6,16.3,29.80,West,264,1.0,4.0,62,0.00,,CLR,0.00,VWS V14.00,2013-03-22 07:22:00,
2013-03-22 03:27:00,27.7,16.4,29.80,West,278,1.0,4.0,62,0.00,,CLR,0.00,VWS V14.00,2013-03-22 07:27:00,
2013-03-22 03:30:00,27.7,16.4,29.80,SW,222,3.0,4.0,62,0.00,,CLR,0.00,VWS V14.00,2013-03-22 07:30:00,
2013-03-22 03:32:00,27.7,16.4,29.80,WNW,293,1.0,4.0,62,0.00,,CLR,0.00,VWS V14.00,2013-03-22 07:32:00,
2013-03-22 03:37:00,27.7,16.4,29.80,SSW,205,1.0,4.0,62,0.00,,CLR,0.00,VWS V14.00,2013-03-22 07:37:00,
2013-03-22 03:42:00,27.6,16.7,29.80,NW,320,0.0,4.0,63,0.00,,CLR,0.00,VWS V14.00,2013-03-22 07:42:00,
2013-03-22 03:47:00,27.8,16.9,29.80,WSW,242,1.0,5.0,63,0.00,,CLR,0.00,VWS V14.00,2013-03-22 07:47:00,
2013-03-22 03:52:00,27.8,16.9,29.80,WNW,284,2.0,5.0,63,0.00,,CLR,0.00,VWS V14.00,2013-03-22 07:52:00,
2013-03-22 03:58:00,28.0,17.0,29.80,WSW,255,3.0,6.0,63,0.00,,CLR,0.00,VWS V14.00,2013-03-22 07:58:00,
2013-03-22 04:00:00,28.0,17.0,29.80,West,278,3.0,6.0,63,0.00,,CLR,0.00,VWS V14.00,2013-03-22 08:00:00,
2013-03-22 04:03:00,28.0,17.0,29.80,West,281,1.0,4.0,63,0.00,,CLR,0.00,VWS V14.00,2013-03-22 08:03:00,
2013-03-22 04:08:00,28.1,17.1,29.80,WSW,255,1.0,7.0,63,0.00,,CLR,0.00,VWS V14.00,2013-03-22 08:08:00,
2013-03-22 04:13:00,27.9,17.3,29.79,WSW,238,0.0,7.0,64,0.00,,CLR,0.00,VWS V14.00,2013-03-22 08:13:00,
2013-03-22 04:18:00,27.7,17.1,29.80,West,263,2.0,7.0,64,0.00,,CLR,0.00,VWS V14.00,2013-03-22 08:18:00,
2013-03-22 04:23:00,27.8,17.2,29.80,South,190,0.0,7.0,64,0.00,,CLR,0.00,VWS V14.00,2013-03-22 08:23:00,
2013-03-22 04:29:00,27.8,17.6,29.80,WSW,240,0.0,7.0,65,0.00,,CLR,0.00,VWS V14.00,2013-03-22 08:29:00,
2013-03-22 04:30:00,27.7,17.5,29.80,West,264,0.0,7.0,65,0.00,,CLR,0.00,VWS V14.00,2013-03-22 08:30:00,
2013-03-22 04:34:00,27.8,17.6,29.80,West,274,1.0,4.0,65,0.00,,CLR,0.00,VWS V14.00,2013-03-22 08:34:00,
2013-03-22 04:39:00,27.8,17.6,29.80,SSE,162,0.0,7.0,65,0.00,,CLR,0.00,VWS V14.00,2013-03-22 08:39:00,
2013-03-22 04:44:00,27.5,17.3,29.80,WSW,257,0.0,7.0,65,0.00,,CLR,0.00,VWS V14.00,2013-03-22 08:44:00,
2013-03-22 04:49:00,27.6,17.7,29.80,WNW,283,2.0,7.0,66,0.00,,CLR,0.00,VWS V14.00,2013-03-22 08:49:00,
2013-03-22 04:54:00,27.7,17.5,29.80,SSW,203,1.0,7.0,65,0.00,,CLR,0.00,VWS V14.00,2013-03-22 08:54:00,
2013-03-22 04:59:00,27.7,17.8,29.80,SW,217,0.0,7.0,66,0.00,,CLR,0.00,VWS V14.00,2013-03-22 08:59:00,
2013-03-22 05:00:00,27.7,17.8,29.80,SW,217,0.0,7.0,66,0.00,,CLR,0.00,VWS V14.00,2013-03-22 09:00:00,
2013-03-22 05:05:00,27.5,17.6,29.80,West,264,0.0,2.0,66,0.00,,CLR,0.00,VWS V14.00,2013-03-22 09:05:00,
2013-03-22 05:10:00,27.2,17.4,29.80,SSW,211,1.0,2.0,66,0.00,,CLR,0.00,VWS V14.00,2013-03-22 09:10:00,
2013-03-22 05:15:00,27.1,17.6,29.80,WSW,258,0.0,3.0,67,0.00,,CLR,0.00,VWS V14.00,2013-03-22 09:15:00,
2013-03-22 05:21:00,27.2,17.7,29.80,West,274,0.0,4.0,67,0.00,,CLR,0.00,VWS V14.00,2013-03-22 09:21:00,
2013-03-22 05:26:00,27.2,17.7,29.80,SW,226,1.0,4.0,67,0.00,,CLR,0.00,VWS V14.00,2013-03-22 09:26:00,
2013-03-22 05:30:00,27.3,17.8,29.80,West,280,2.0,4.0,67,0.00,,CLR,0.00,VWS V14.00,2013-03-22 09:30:00,
2013-03-22 05:31:00,27.3,17.8,29.80,West,269,1.0,3.0,67,0.00,,CLR,0.00,VWS V14.00,2013-03-22 09:31:00,
2013-03-22 05:36:00,27.2,17.7,29.81,West,278,1.0,3.0,67,0.00,,CLR,0.00,VWS V14.00,2013-03-22 09:36:00,
2013-03-22 05:41:00,27.1,17.6,29.81,WSW,255,0.0,3.0,67,0.00,,CLR,0.00,VWS V14.00,2013-03-22 09:41:00,
2013-03-22 05:47:00,27.1,18.0,29.81,SW,232,1.0,3.0,68,0.00,,CLR,0.00,VWS V14.00,2013-03-22 09:47:00,
2013-03-22 05:52:00,27.1,18.0,29.81,SW,215,1.0,4.0,68,0.00,,CLR,0.00,VWS V14.00,2013-03-22 09:52:00,
2013-03-22 05:57:00,27.0,17.9,29.81,West,260,2.0,4.0,68,0.00,,CLR,0.00,VWS V14.00,2013-03-22 09:57:00,
2013-03-22 06:00:00,27.0,17.9,29.81,WSW,250,5.0,5.0,68,0.00,,CLR,0.00,VWS V14.00,2013-03-22 10:00:00,
2013-03-22 06:02:00,27.0,17.9,29.81,WSW,238,1.0,5.0,68,0.00,,CLR,0.00,VWS V14.00,2013-03-22 10:02:00,
2013-03-22 06:07:00,27.0,18.2,29.81,West,264,1.0,5.0,69,0.00,,CLR,0.00,VWS V14.00,2013-03-22 10:07:00,
2013-03-22 06:12:00,27.0,18.2,29.82,WSW,242,1.0,6.0,69,0.00,,CLR,0.00,VWS V14.00,2013-03-22 10:12:00,
2013-03-22 06:17:00,27.1,18.3,29.82,WSW,239,1.0,7.0,69,0.00,,CLR,0.00,VWS V14.00,2013-03-22 10:17:00,
2013-03-22 06:22:00,27.1,18.3,29.82,WSW,240,0.0,7.0,69,0.00,,CLR,0.00,VWS V14.00,2013-03-22 10:22:00,
2013-03-22 06:28:00,27.0,18.5,29.82,SW,232,2.0,7.0,70,0.00,,CLR,0.00,VWS V14.00,2013-03-22 10:28:00,
2013-03-22 06:30:00,27.1,18.6,29.82,WNW,284,1.0,7.0,70,0.00,,CLR,0.00,VWS V14.00,2013-03-22 10:30:00,
2013-03-22 06:33:00,27.2,18.7,29.82,SW,218,0.0,5.0,70,0.00,,CLR,0.00,VWS V14.00,2013-03-22 10:33:00,
2013-03-22 06:38:00,27.0,18.5,29.83,WNW,293,2.0,5.0,70,0.00,,CLR,0.00,VWS V14.00,2013-03-22 10:38:00,
2013-03-22 06:43:00,26.9,18.8,29.83,WNW,295,1.0,5.0,71,0.00,,CLR,0.00,VWS V14.00,2013-03-22 10:43:00,
2013-03-22 06:48:00,26.9,18.8,29.83,West,260,1.0,5.0,71,0.00,,CLR,0.00,VWS V14.00,2013-03-22 10:48:00,
2013-03-22 06:53:00,26.9,18.8,29.83,WNW,300,0.0,5.0,71,0.00,,CLR,0.00,VWS V14.00,2013-03-22 10:53:00,
2013-03-22 06:58:00,26.9,18.8,29.83,West,266,1.0,5.0,71,0.00,,CLR,0.00,VWS V14.00,2013-03-22 10:58:00,
2013-03-22 07:00:00,27.0,18.9,29.83,WNW,291,3.0,5.0,71,0.00,,CLR,0.00,VWS V14.00,2013-03-22 11:00:00,
2013-03-22 07:03:00,27.1,19.3,29.83,West,280,3.0,5.0,72,0.00,,CLR,0.00,VWS V14.00,2013-03-22 11:03:00,
2013-03-22 07:08:00,27.1,19.3,29.83,WNW,297,1.0,5.0,72,0.00,,CLR,0.00,VWS V14.00,2013-03-22 11:08:00,
2013-03-22 07:14:00,27.0,19.2,29.84,West,269,4.0,5.0,72,0.00,,CLR,0.00,VWS V14.00,2013-03-22 11:14:00,
2013-03-22 07:19:00,27.1,19.3,29.84,WSW,245,3.0,5.0,72,0.00,,CLR,0.00,VWS V14.00,2013-03-22 11:19:00,
2013-03-22 07:24:00,27.3,19.5,29.84,WSW,257,1.0,5.0,72,0.00,,CLR,0.00,VWS V14.00,2013-03-22 11:24:00,
2013-03-22 07:29:00,27.5,19.7,29.84,WSW,246,1.0,5.0,72,0.00,,CLR,0.00,VWS V14.00,2013-03-22 11:29:00,
2013-03-22 07:30:00,27.5,19.7,29.84,WSW,253,1.0,5.0,72,0.00,,CLR,0.00,VWS V14.00,2013-03-22 11:30:00,
2013-03-22 07:34:00,27.7,19.9,29.84,West,275,1.0,4.0,72,0.00,,CLR,0.00,VWS V14.00,2013-03-22 11:34:00,
2013-03-22 07:39:00,27.8,20.0,29.85,NW,314,2.0,4.0,72,0.00,,CLR,0.00,VWS V14.00,2013-03-22 11:39:00,
2013-03-22 07:45:00,28.0,20.2,29.85,WNW,293,0.0,5.0,72,0.00,,CLR,0.00,VWS V14.00,2013-03-22 11:45:00,
2013-03-22 07:50:00,28.4,20.2,29.85,NW,322,3.0,9.0,71,0.00,,CLR,0.00,VWS V14.00,2013-03-22 11:50:00,
2013-03-22 07:55:00,28.7,20.5,29.85,WNW,293,0.0,9.0,71,0.00,,CLR,0.00,VWS V14.00,2013-03-22 11:55:00,
2013-03-22 08:00:00,29.1,20.5,29.85,West,272,1.0,3.0,70,0.00,,CLR,0.00,VWS V14.00,2013-03-22 12:00:00,
2013-03-22 08:05:00,29.5,20.9,29.85,NW,309,1.0,3.0,70,0.00,,CLR,0.00,VWS V14.00,2013-03-22 12:05:00,
2013-03-22 08:11:00,29.9,20.6,29.85,WNW,287,0.0,3.0,68,0.00,,CLR,0.00,VWS V14.00,2013-03-22 12:11:00,
2013-03-22 08:16:00,30.3,21.0,29.85,WNW,300,2.0,4.0,68,0.00,,CLR,0.00,VWS V14.00,2013-03-22 12:16:00,
2013-03-22 08:21:00,30.6,21.0,29.85,SSW,194,1.0,4.0,67,0.00,,CLR,0.00,VWS V14.00,2013-03-22 12:21:00,
2013-03-22 08:26:00,31.0,20.6,29.85,NNW,347,3.0,8.0,65,0.00,,CLR,0.00,VWS V14.00,2013-03-22 12:26:00,
2013-03-22 08:30:00,31.1,21.1,29.85,WNW,290,2.0,8.0,66,0.00,,CLR,0.00,VWS V14.00,2013-03-22 12:30:00,
2013-03-22 08:32:00,31.2,20.8,29.85,NW,316,1.0,11.0,65,0.00,,CLR,0.00,VWS V14.00,2013-03-22 12:32:00,
2013-03-22 08:37:00,31.6,21.2,29.85,WNW,283,1.0,11.0,65,0.00,,CLR,0.00,VWS V14.00,2013-03-22 12:37:00,
2013-03-22 08:42:00,31.7,20.9,29.85,NW,323,1.0,11.0,64,0.00,,CLR,0.00,VWS V14.00,2013-03-22 12:42:00,
2013-03-22 08:47:00,31.8,21.0,29.86,West,281,3.0,11.0,64,0.00,,CLR,0.00,VWS V14.00,2013-03-22 12:47:00,
2013-03-22 08:52:00,32.1,21.3,29.86,WNW,297,9.0,11.0,64,0.00,,CLR,0.00,VWS V14.00,2013-03-22 12:52:00,
2013-03-22 08:57:00,32.1,20.9,29.86,NNW,331,7.0,11.0,63,0.00,,CLR,0.00,VWS V14.00,2013-03-22 12:57:00,
2013-03-22 09:00:00,31.8,20.7,29.86,West,264,1.0,11.0,63,0.00,,CLR,0.00,VWS V14.00,2013-03-22 13:00:00,
2013-03-22 09:02:00,31.7,20.6,29.86,NW,306,5.0,7.0,63,0.00,,CLR,0.00,VWS V14.00,2013-03-22 13:02:00,
2013-03-22 09:07:00,31.7,20.6,29.86,NNE,13,2.0,7.0,63,0.00,,CLR,0.00,VWS V14.00,2013-03-22 13:07:00,
2013-03-22 09:13:00,31.7,20.6,29.86,WNW,301,7.0,7.0,63,0.00,,CLR,0.00,VWS V14.00,2013-03-22 13:13:00,
2013-03-22 09:18:00,31.6,20.1,29.85,WNW,294,6.0,15.0,62,0.00,,CLR,0.00,VWS V14.00,2013-03-22 13:18:00,
2013-03-22 09:23:00,31.8,20.3,29.86,WNW,289,3.0,15.0,62,0.00,,CLR,0.00,VWS V14.00,2013-03-22 13:23:00,
2013-03-22 09:28:00,32.1,20.6,29.86,NW,323,11.0,15.0,62,0.00,,CLR,0.00,VWS V14.00,2013-03-22 13:28:00,
2013-03-22 09:30:00,32.0,20.1,29.86,WNW,298,5.0,15.0,61,0.00,,CLR,0.00,VWS V14.00,2013-03-22 13:30:00,
2013-03-22 09:33:00,32.1,20.2,29.85,NNE,19,7.0,11.0,61,0.00,,CLR,0.00,VWS V14.00,2013-03-22 13:33:00,
2013-03-22 09:38:00,32.8,20.9,29.85,NNW,340,3.0,11.0,61,0.00,,CLR,0.00,VWS V14.00,2013-03-22 13:38:00,
2013-03-22 09:43:00,33.3,20.5,29.86,NW,311,12.0,15.0,59,0.00,,CLR,0.00,VWS V14.00,2013-03-22 13:43:00,
2013-03-22 09:48:00,33.5,20.3,29.86,NW,308,3.0,15.0,58,0.00,,CLR,0.00,VWS V14.00,2013-03-22 13:48:00,
2013-03-22 09:54:00,33.2,19.6,29.86,WNW,299,5.0,15.0,57,0.00,,CLR,0.00,VWS V14.00,2013-03-22 13:54:00,
2013-03-22 09:59:00,33.1,19.9,29.86,NW,305,4.0,15.0,58,0.00,,CLR,0.00,VWS V14.00,2013-03-22 13:59:00,
2013-03-22 10:00:00,33.2,20.0,29.86,NNW,338,8.0,15.0,58,0.00,,CLR,0.00,VWS V14.00,2013-03-22 14:00:00,
2013-03-22 10:04:00,33.2,20.0,29.86,WNW,288,2.0,12.0,58,0.00,,BKN038,0.00,VWS V14.00,2013-03-22 14:04:00,
2013-03-22 10:09:00,33.4,19.8,29.86,West,268,6.0,12.0,57,0.00,,BKN038,0.00,VWS V14.00,2013-03-22 14:09:00,
2013-03-22 10:14:00,33.5,19.5,29.86,NNW,328,6.0,12.0,56,0.00,,BKN038,0.00,VWS V14.00,2013-03-22 14:14:00,
2013-03-22 10:19:00,33.6,19.2,29.87,WNW,295,3.0,12.0,55,0.00,,BKN038,0.00,VWS V14.00,2013-03-22 14:19:00,
2013-03-22 10:24:00,33.8,19.4,29.87,West,279,3.0,12.0,55,0.00,,BKN038,0.00,VWS V14.00,2013-03-22 14:24:00,
2013-03-22 10:30:00,34.4,19.9,29.87,NNW,333,3.0,4.0,55,0.00,,BKN038,0.00,VWS V14.00,2013-03-22 14:30:00,
2013-03-22 10:35:00,35.0,20.5,29.87,NW,321,5.0,10.0,55,0.00,,BKN038,0.00,VWS V14.00,2013-03-22 14:35:00,
2013-03-22 10:40:00,35.6,20.2,29.86,NNW,338,7.0,10.0,53,0.00,,BKN038,0.00,VWS V14.00,2013-03-22 14:40:00,
2013-03-22 10:45:00,35.2,19.8,29.86,NNW,347,12.0,13.0,53,0.00,,BKN038,0.00,VWS V14.00,2013-03-22 14:45:00,
2013-03-22 10:50:00,35.1,20.1,29.86,WNW,301,5.0,13.0,54,0.00,,BKN038,0.00,VWS V14.00,2013-03-22 14:50:00,
2013-03-22 10:56:00,35.9,20.0,29.86,WNW,294,6.0,13.0,52,0.00,,BKN038,0.00,VWS V14.00,2013-03-22 14:56:00,
2013-03-22 11:00:00,36.5,20.1,29.86,NW,326,6.0,13.0,51,0.00,,CLR,0.00,VWS V14.00,2013-03-22 15:00:00,
2013-03-22 11:01:00,36.4,19.5,29.86,WNW,289,3.0,8.0,50,0.00,,BKN044,0.00,VWS V14.00,2013-03-22 15:01:00,
2013-03-22 11:06:00,36.6,19.7,29.86,WNW,290,4.0,11.0,50,0.00,,BKN044,0.00,VWS V14.00,2013-03-22 15:06:00,
2013-03-22 11:11:00,36.2,19.4,29.86,West,276,4.0,11.0,50,0.00,,BKN044,0.00,VWS V14.00,2013-03-22 15:11:00,
2013-03-22 11:17:00,36.1,20.2,29.86,NW,326,4.0,11.0,52,0.00,,BKN044,0.00,VWS V14.00,2013-03-22 15:17:00,
2013-03-22 11:22:00,36.5,19.2,29.86,NE,51,6.0,13.0,49,0.00,,BKN044,0.00,VWS V14.00,2013-03-22 15:22:00,
2013-03-22 11:27:00,35.9,19.1,29.86,WNW,290,5.0,15.0,50,0.00,,BKN044,0.00,VWS V14.00,2013-03-22 15:27:00,
2013-03-22 11:30:00,36.1,19.3,29.86,NW,323,3.0,15.0,50,0.00,,CLR,0.00,VWS V14.00,2013-03-22 15:30:00,
2013-03-22 11:32:00,36.5,19.2,29.86,NW,305,3.0,11.0,49,0.00,,BKN044,0.00,VWS V14.00,2013-03-22 15:32:00,
2013-03-22 11:38:00,36.7,18.4,29.86,WNW,290,8.0,15.0,47,0.00,,BKN044,0.00,VWS V14.00,2013-03-22 15:38:00,
2013-03-22 11:43:00,36.5,19.2,29.85,WNW,300,7.0,15.0,49,0.00,,BKN044,0.00,VWS V14.00,2013-03-22 15:43:00,
2013-03-22 11:48:00,36.8,18.5,29.85,NW,304,8.0,15.0,47,0.00,,BKN044,0.00,VWS V14.00,2013-03-22 15:48:00,
2013-03-22 11:53:00,36.8,18.5,29.85,NW,315,3.0,15.0,47,0.00,,BKN044,0.00,VWS V14.00,2013-03-22 15:53:00,
2013-03-22 11:58:00,36.7,18.4,29.85,WNW,297,10.0,15.0,47,0.00,,BKN044,0.00,VWS V14.00,2013-03-22 15:58:00,
2013-03-22 12:00:00,36.7,18.4,29.85,WNW,300,10.0,15.0,47,0.00,,CLR,0.00,VWS V14.00,2013-03-22 16:00:00,
2013-03-22 12:03:00,37.1,18.2,29.85,NW,321,5.0,15.0,46,0.00,,OVC048,0.00,VWS V14.00,2013-03-22 16:03:00,
2013-03-22 12:08:00,37.6,18.2,29.84,WNW,293,6.0,19.0,45,0.00,,OVC048,0.00,VWS V14.00,2013-03-22 16:08:00,
2013-03-22 12:14:00,37.1,18.8,29.85,NNW,329,1.0,19.0,47,0.00,,OVC048,0.00,VWS V14.00,2013-03-22 16:14:00,
2013-03-22 12:19:00,37.3,18.9,29.84,North,351,6.0,19.0,47,0.00,,OVC048,0.00,VWS V14.00,2013-03-22 16:19:00,
2013-03-22 12:24:00,37.9,19.5,29.84,WNW,302,9.0,19.0,47,0.00,,OVC048,0.00,VWS V14.00,2013-03-22 16:24:00,
2013-03-22 12:29:00,38.9,19.4,29.84,NNW,328,6.0,19.0,45,0.00,,OVC048,0.00,VWS V14.00,2013-03-22 16:29:00,
2013-03-22 12:30:00,38.9,18.9,29.84,West,279,8.0,19.0,44,0.00,,CLR,0.00,VWS V14.00,2013-03-22 16:30:00,
2013-03-22 12:34:00,39.1,19.0,29.84,NNE,14,5.0,14.0,44,0.00,,OVC048,0.00,VWS V14.00,2013-03-22 16:34:00,
2013-03-22 12:39:00,39.3,19.2,29.84,West,280,2.0,20.0,44,0.00,,OVC048,0.00,VWS V14.00,2013-03-22 16:39:00,
2013-03-22 12:44:00,39.6,19.0,29.84,NW,319,10.0,20.0,43,0.00,,OVC048,0.00,VWS V14.00,2013-03-22 16:44:00,
2013-03-22 12:49:00,39.6,19.0,29.84,NW,318,6.0,20.0,43,0.00,,OVC048,0.00,VWS V14.00,2013-03-22 16:49:00,
2013-03-22 12:55:00,40.0,19.3,29.84,WNW,290,9.0,20.0,43,0.00,,OVC048,0.00,VWS V14.00,2013-03-22 16:55:00,
2013-03-22 12:59:00,40.2,19.0,29.84,West,260,4.0,20.0,42,0.00,,OVC048,0.00,VWS V14.00,2013-03-22 16:59:00,
2013-03-22 13:00:00,40.2,19.0,29.84,West,260,4.0,20.0,42,0.00,,CLR,0.00,VWS V14.00,2013-03-22 17:00:00,
2013-03-22 13:05:00,39.3,18.7,29.84,West,269,3.0,14.0,43,0.00,,OVC060,0.00,VWS V14.00,2013-03-22 17:05:00,
2013-03-22 13:10:00,39.2,18.6,29.84,West,274,5.0,14.0,43,0.00,,OVC060,0.00,VWS V14.00,2013-03-22 17:10:00,
2013-03-22 13:15:00,38.9,19.4,29.84,WNW,292,7.0,14.0,45,0.00,,OVC060,0.00,VWS V14.00,2013-03-22 17:15:00,
2013-03-22 13:20:00,39.6,20.0,29.84,West,273,5.0,16.0,45,0.00,,OVC060,0.00,VWS V14.00,2013-03-22 17:20:00,
2013-03-22 13:25:00,39.8,19.1,29.83,NNW,331,3.0,16.0,43,0.00,,OVC060,0.00,VWS V14.00,2013-03-22 17:25:00,
2013-03-22 13:30:00,39.4,18.8,29.83,WNW,297,6.0,11.0,43,0.00,,OVC060,0.00,VWS V14.00,2013-03-22 17:30:00,
2013-03-22 13:35:00,38.8,18.2,29.83,WNW,302,11.0,11.0,43,0.00,,OVC060,0.00,VWS V14.00,2013-03-22 17:35:00,
2013-03-22 13:41:00,39.3,19.2,29.83,NNW,328,3.0,21.0,44,0.00,,OVC060,0.00,VWS V14.00,2013-03-22 17:41:00,
2013-03-22 13:46:00,39.9,17.5,29.83,NNW,340,7.0,21.0,40,0.00,,OVC060,0.00,VWS V14.00,2013-03-22 17:46:00,
2013-03-22 13:51:00,39.9,18.1,29.83,West,269,6.0,21.0,41,0.00,,OVC060,0.00,VWS V14.00,2013-03-22 17:51:00,
2013-03-22 13:56:00,40.6,18.8,29.83,WNW,287,8.0,21.0,41,0.00,,OVC060,0.00,VWS V14.00,2013-03-22 17:56:00,
2013-03-22 14:00:00,40.9,19.0,29.83,NW,311,3.0,21.0,41,0.00,,CLR,0.00,VWS V14.00,2013-03-22 18:00:00,
2013-03-22 14:01:00,40.8,18.9,29.83,SW,224,7.0,11.0,41,0.00,,BKN055,0.00,VWS V14.00,2013-03-22 18:01:00,
2013-03-22 14:06:00,40.4,18.6,29.83,WNW,289,10.0,16.0,41,0.00,,BKN055,0.00,VWS V14.00,2013-03-22 18:06:00,
2013-03-22 14:11:00,39.7,18.5,29.83,NNW,333,4.0,16.0,42,0.00,,BKN055,0.00,VWS V14.00,2013-03-22 18:11:00,
2013-03-22 14:16:00,39.2,18.0,29.83,NW,323,3.0,16.0,42,0.00,,BKN055,0.00,VWS V14.00,2013-03-22 18:16:00,
2013-03-22 14:21:00,39.0,17.9,29.83,WNW,298,7.0,16.0,42,0.00,,BKN055,0.00,VWS V14.00,2013-03-22 18:21:00,
2013-03-22 14:27:00,40.1,19.4,29.83,NNW,331,10.0,16.0,43,0.00,,BKN055,0.00,VWS V14.00,2013-03-22 18:27:00,
2013-03-22 14:30:00,40.9,19.0,29.83,NNW,329,5.0,16.0,41,0.00,,CLR,0.00,VWS V14.00,2013-03-22 18:30:00,
2013-03-22 14:32:00,41.3,18.8,29.83,NW,326,7.0,11.0,40,0.00,,BKN055,0.00,VWS V14.00,2013-03-22 18:32:00,
2013-03-22 14:37:00,41.1,18.6,29.83,WSW,238,2.0,11.0,40,0.00,,BKN055,0.00,VWS V14.00,2013-03-22 18:37:00,
2013-03-22 14:42:00,40.9,18.5,29.82,West,262,2.0,14.0,40,0.00,,BKN055,0.00,VWS V14.00,2013-03-22 18:42:00,
2013-03-22 14:48:00,41.7,18.6,29.83,West,271,4.0,16.0,39,0.00,,BKN055,0.00,VWS V14.00,2013-03-22 18:48:00,
2013-03-22 14:53:00,40.8,18.4,29.83,WNW,300,3.0,16.0,40,0.00,,BKN055,0.00,VWS V14.00,2013-03-22 18:53:00,
2013-03-22 14:58:00,40.3,19.6,29.83,NNW,340,8.0,16.0,43,0.00,,BKN055,0.00,VWS V14.00,2013-03-22 18:58:00,
2013-03-22 15:00:00,40.2,19.0,29.83,NNW,333,5.0,16.0,42,0.00,,CLR,0.00,VWS V14.00,2013-03-22 19:00:00,
2013-03-22 15:03:00,39.9,18.7,29.83,WNW,287,9.0,15.0,42,0.00,,OVC060,0.00,VWS V14.00,2013-03-22 19:03:00,
2013-03-22 15:08:00,39.5,19.4,29.83,NW,316,7.0,15.0,44,0.00,,OVC060,0.00,VWS V14.00,2013-03-22 19:08:00,
2013-03-22 15:13:00,39.5,18.9,29.83,WNW,295,7.0,15.0,43,0.00,,OVC060,0.00,VWS V14.00,2013-03-22 19:13:00,
2013-03-22 15:19:00,39.5,18.3,29.83,WNW,302,11.0,15.0,42,0.00,,OVC060,0.00,VWS V14.00,2013-03-22 19:19:00,
2013-03-22 15:24:00,39.5,18.9,29.83,WNW,283,5.0,15.0,43,0.00,,OVC060,0.00,VWS V14.00,2013-03-22 19:24:00,
2013-03-22 15:29:00,39.6,19.0,29.83,NNE,20,2.0,15.0,43,0.00,,OVC060,0.00,VWS V14.00,2013-03-22 19:29:00,
2013-03-22 15:30:00,39.7,19.0,29.83,NNW,341,5.0,15.0,43,0.00,,CLR,0.00,VWS V14.00,2013-03-22 19:30:00,
2013-03-22 15:34:00,39.5,18.3,29.83,NNW,336,6.0,13.0,42,0.00,,OVC060,0.00,VWS V14.00,2013-03-22 19:34:00,
2013-03-22 15:39:00,39.7,19.0,29.83,NNW,330,2.0,14.0,43,0.00,,OVC060,0.00,VWS V14.00,2013-03-22 19:39:00,
2013-03-22 15:45:00,41.5,20.7,29.83,NNW,340,3.0,14.0,43,0.00,,OVC060,0.00,VWS V14.00,2013-03-22 19:45:00,
2013-03-22 15:50:00,42.2,19.0,29.83,NNW,335,6.0,14.0,39,0.00,,OVC060,0.00,VWS V14.00,2013-03-22 19:50:00,
2013-03-22 15:55:00,42.5,19.3,29.83,NW,323,5.0,14.0,39,0.00,,OVC060,0.00,VWS V14.00,2013-03-22 19:55:00,
2013-03-22 16:00:00,42.5,18.1,29.83,NNW,344,4.0,14.0,37,0.00,,OVC060,0.00,VWS V14.00,2013-03-22 20:00:00,
2013-03-22 16:05:00,41.8,18.7,29.83,West,262,7.0,13.0,39,0.00,,OVC060,0.00,VWS V14.00,2013-03-22 20:05:00,
2013-03-22 16:10:00,41.5,17.8,29.83,NW,314,6.0,13.0,38,0.00,,OVC060,0.00,VWS V14.00,2013-03-22 20:10:00,
2013-03-22 16:15:00,41.3,18.8,29.83,NW,320,9.0,13.0,40,0.00,,OVC060,0.00,VWS V14.00,2013-03-22 20:15:00,
2013-03-22 16:20:00,40.9,18.5,29.83,West,279,2.0,13.0,40,0.00,,OVC060,0.00,VWS V14.00,2013-03-22 20:20:00,
2013-03-22 16:25:00,40.7,18.3,29.83,WNW,302,3.0,13.0,40,0.00,,OVC060,0.00,VWS V14.00,2013-03-22 20:25:00,
2013-03-22 16:30:00,40.6,18.2,29.83,NW,319,7.0,13.0,40,0.00,,CLR,0.00,VWS V14.00,2013-03-22 20:30:00,
2013-03-22 16:31:00,40.5,18.1,29.84,WNW,301,1.0,7.0,40,0.00,,OVC060,0.00,VWS V14.00,2013-03-22 20:31:00,
2013-03-22 16:36:00,40.6,18.8,29.84,WNW,295,5.0,10.0,41,0.00,,OVC060,0.00,VWS V14.00,2013-03-22 20:36:00,
2013-03-22 16:42:00,41.3,20.0,29.84,NW,319,7.0,12.0,42,0.00,,OVC060,0.00,VWS V14.00,2013-03-22 20:42:00,
2013-03-22 16:47:00,41.6,20.8,29.84,WSW,243,6.0,12.0,43,0.00,,OVC060,0.00,VWS V14.00,2013-03-22 20:47:00,
2013-03-22 16:52:00,41.2,21.0,29.84,WNW,301,7.0,12.0,44,0.00,,OVC060,0.00,VWS V14.00,2013-03-22 20:52:00,
2013-03-22 16:57:00,40.8,20.6,29.84,WNW,285,6.0,12.0,44,0.00,,OVC060,0.00,VWS V14.00,2013-03-22 20:57:00,
2013-03-22 17:00:00,40.8,21.1,29.84,West,274,5.0,12.0,45,0.00,,CLR,0.00,VWS V14.00,2013-03-22 21:00:00,
2013-03-22 17:02:00,40.8,20.6,29.84,WNW,289,8.0,13.0,44,0.00,,OVC050,0.00,VWS V14.00,2013-03-22 21:02:00,
2013-03-22 17:07:00,40.3,21.2,29.84,West,267,7.0,14.0,46,0.00,,OVC050,0.00,VWS V14.00,2013-03-22 21:07:00,
2013-03-22 17:12:00,40.9,21.7,29.84,NW,305,5.0,14.0,46,0.00,,OVC050,0.00,VWS V14.00,2013-03-22 21:12:00,
2013-03-22 17:18:00,41.7,21.9,29.84,WNW,295,10.0,14.0,45,0.00,,OVC050,0.00,VWS V14.00,2013-03-22 21:18:00,
2013-03-22 17:23:00,40.9,21.2,29.85,WNW,290,4.0,19.0,45,0.00,,OVC050,0.00,VWS V14.00,2013-03-22 21:23:00,
2013-03-22 17:28:00,40.3,21.2,29.85,West,276,2.0,19.0,46,0.00,,OVC050,0.00,VWS V14.00,2013-03-22 21:28:00,
2013-03-22 17:30:00,40.3,21.2,29.85,WNW,300,2.0,19.0,46,0.00,,CLR,0.00,VWS V14.00,2013-03-22 21:30:00,
2013-03-22 17:33:00,40.3,21.2,29.85,NW,308,7.0,7.0,46,0.00,,OVC050,0.00,VWS V14.00,2013-03-22 21:33:00,
2013-03-22 17:38:00,40.0,20.9,29.85,WSW,250,8.0,12.0,46,0.00,,OVC050,0.00,VWS V14.00,2013-03-22 21:38:00,
2013-03-22 17:44:00,40.0,21.4,29.85,West,259,3.0,12.0,47,0.00,,OVC050,0.00,VWS V14.00,2013-03-22 21:44:00,
2013-03-22 17:49:00,40.3,21.2,29.85,West,279,6.0,12.0,46,0.00,,OVC050,0.00,VWS V14.00,2013-03-22 21:49:00,
2013-03-22 17:54:00,40.6,21.5,29.85,SW,225,8.0,12.0,46,0.00,,OVC050,0.00,VWS V14.00,2013-03-22 21:54:00,
2013-03-22 17:59:00,40.6,21.5,29.86,WNW,293,5.0,13.0,46,0.00,,OVC050,0.00,VWS V14.00,2013-03-22 21:59:00,
2013-03-22 18:00:00,40.6,21.5,29.86,WNW,295,3.0,13.0,46,0.00,,CLR,0.00,VWS V14.00,2013-03-22 22:00:00,
2013-03-22 18:04:00,40.4,21.8,29.86,WSW,258,2.0,10.0,47,0.00,,BKN050,0.00,VWS V14.00,2013-03-22 22:04:00,
2013-03-22 18:09:00,40.2,21.6,29.86,WSW,240,3.0,10.0,47,0.00,,BKN050,0.00,VWS V14.00,2013-03-22 22:09:00,
2013-03-22 18:15:00,39.8,20.7,29.86,NW,309,2.0,10.0,46,0.00,,BKN050,0.00,VWS V14.00,2013-03-22 22:15:00,
2013-03-22 18:20:00,39.9,21.3,29.86,West,273,2.0,10.0,47,0.00,,BKN050,0.00,VWS V14.00,2013-03-22 22:20:00,
2013-03-22 18:25:00,40.1,21.0,29.86,NW,311,9.0,10.0,46,0.00,,BKN050,0.00,VWS V14.00,2013-03-22 22:25:00,
2013-03-22 18:30:00,40.1,21.0,29.87,West,269,8.0,8.0,46,0.00,,BKN050,0.00,VWS V14.00,2013-03-22 22:30:00,
2013-03-22 18:35:00,39.6,21.0,29.87,NW,324,2.0,9.0,47,0.00,,BKN050,0.00,VWS V14.00,2013-03-22 22:35:00,
2013-03-22 18:40:00,39.3,21.3,29.87,WNW,293,4.0,9.0,48,0.00,,BKN050,0.00,VWS V14.00,2013-03-22 22:40:00,
2013-03-22 18:45:00,38.9,21.4,29.87,NW,316,4.0,9.0,49,0.00,,BKN050,0.00,VWS V14.00,2013-03-22 22:45:00,
2013-03-22 18:50:00,38.8,21.3,29.88,WNW,282,1.0,9.0,49,0.00,,BKN050,0.00,VWS V14.00,2013-03-22 22:50:00,
2013-03-22 18:55:00,38.7,21.2,29.88,SW,229,2.0,9.0,49,0.00,,BKN050,0.00,VWS V14.00,2013-03-22 22:55:00,
2013-03-22 19:00:00,38.6,21.6,29.88,WNW,284,3.0,9.0,50,0.00,,CLR,0.00,VWS V14.00,2013-03-22 23:00:00,
2013-03-22 19:01:00,38.6,21.6,29.88,WSW,253,0.0,2.0,50,0.00,,SCT060,0.00,VWS V14.00,2013-03-22 23:01:00,
2013-03-22 19:06:00,38.4,20.9,29.88,WNW,297,3.0,9.0,49,0.00,,SCT060,0.00,VWS V14.00,2013-03-22 23:06:00,
2013-03-22 19:11:00,38.3,21.3,29.88,West,271,7.0,11.0,50,0.00,,SCT060,0.00,VWS V14.00,2013-03-22 23:11:00,
2013-03-22 19:17:00,38.2,21.2,29.89,West,261,4.0,11.0,50,0.00,,SCT060,0.00,VWS V14.00,2013-03-22 23:17:00,
2013-03-22 19:22:00,38.1,21.1,29.89,NNW,333,4.0,11.0,50,0.00,,SCT060,0.00,VWS V14.00,2013-03-22 23:22:00,
2013-03-22 19:27:00,37.9,20.9,29.89,West,262,4.0,11.0,50,0.00,,SCT060,0.00,VWS V14.00,2013-03-22 23:27:00,
2013-03-22 19:30:00,37.9,20.9,29.89,WSW,248,4.0,11.0,50,0.00,,CLR,0.00,VWS V14.00,2013-03-22 23:30:00,
2013-03-22 19:32:00,37.8,21.3,29.90,NW,315,1.0,5.0,51,0.00,,SCT060,0.00,VWS V14.00,2013-03-22 23:32:00,
2013-03-22 19:37:00,37.6,21.1,29.90,West,278,5.0,10.0,51,0.00,,SCT060,0.00,VWS V14.00,2013-03-22 23:37:00,
2013-03-22 19:42:00,37.5,21.0,29.90,West,276,7.0,12.0,51,0.00,,SCT060,0.00,VWS V14.00,2013-03-22 23:42:00,
2013-03-22 19:47:00,37.4,21.4,29.90,WSW,239,3.0,12.0,52,0.00,,SCT060,0.00,VWS V14.00,2013-03-22 23:47:00,
2013-03-22 19:53:00,37.3,21.3,29.90,NNW,340,1.0,12.0,52,0.00,,SCT060,0.00,VWS V14.00,2013-03-22 23:53:00,
2013-03-22 19:58:00,37.1,21.6,29.90,WNW,300,2.0,12.0,53,0.00,,SCT060,0.00,VWS V14.00,2013-03-22 23:58:00,
2013-03-22 20:00:00,36.9,21.4,29.90,WNW,297,3.0,12.0,53,0.00,,CLR,0.00,VWS V14.00,2013-03-23 00:00:00,
2013-03-22 20:03:00,36.8,21.3,29.91,WNW,297,4.0,6.0,53,0.00,,CLR,0.00,VWS V14.00,2013-03-23 00:03:00,
2013-03-22 20:08:00,36.6,21.5,29.91,WNW,295,2.0,8.0,54,0.00,,CLR,0.00,VWS V14.00,2013-03-23 00:08:00,
2013-03-22 20:13:00,36.5,21.5,29.91,West,276,1.0,8.0,54,0.00,,CLR,0.00,VWS V14.00,2013-03-23 00:13:00,
2013-03-22 20:19:00,36.4,21.8,29.91,NW,304,3.0,8.0,55,0.00,,CLR,0.00,VWS V14.00,2013-03-23 00:19:00,
2013-03-22 20:24:00,36.3,21.7,29.91,WNW,297,2.0,8.0,55,0.00,,CLR,0.00,VWS V14.00,2013-03-23 00:24:00,
2013-03-22 20:29:00,36.0,21.8,29.91,WNW,288,4.0,8.0,56,0.00,,CLR,0.00,VWS V14.00,2013-03-23 00:29:00,
2013-03-22 20:30:00,36.0,21.8,29.91,WNW,284,2.0,8.0,56,0.00,,CLR,0.00,VWS V14.00,2013-03-23 00:30:00,
2013-03-22 20:34:00,35.9,21.8,29.91,WNW,288,6.0,6.0,56,0.00,,CLR,0.00,VWS V14.00,2013-03-23 00:34:00,
2013-03-22 20:39:00,35.8,22.1,29.92,WNW,290,0.0,6.0,57,0.00,,CLR,0.00,VWS V14.00,2013-03-23 00:39:00,
2013-03-22 20:44:00,35.4,21.7,29.91,WNW,297,1.0,6.0,57,0.00,,CLR,0.00,VWS V14.00,2013-03-23 00:44:00,
2013-03-22 20:49:00,35.2,21.9,29.92,SSW,203,1.0,6.0,58,0.00,,CLR,0.00,VWS V14.00,2013-03-23 00:49:00,
2013-03-22 20:54:00,35.2,21.9,29.92,WSW,255,1.0,6.0,58,0.00,,CLR,0.00,VWS V14.00,2013-03-23 00:54:00,
2013-03-22 20:59:00,35.2,21.9,29.92,WSW,256,5.0,6.0,58,0.00,,CLR,0.00,VWS V14.00,2013-03-23 00:59:00,
2013-03-22 21:00:00,35.2,21.9,29.92,West,259,4.0,6.0,58,0.00,,CLR,0.00,VWS V14.00,2013-03-23 01:00:00,
2013-03-22 21:04:00,35.1,22.2,29.92,WSW,253,2.0,7.0,59,0.00,,CLR,0.00,VWS V14.00,2013-03-23 01:04:00,
2013-03-22 21:10:00,35.0,22.1,29.92,SW,232,2.0,9.0,59,0.00,,CLR,0.00,VWS V14.00,2013-03-23 01:10:00,
2013-03-22 21:15:00,35.0,22.1,29.92,NW,308,3.0,10.0,59,0.00,,CLR,0.00,VWS V14.00,2013-03-23 01:15:00,
2013-03-22 21:20:00,34.9,22.0,29.93,WNW,297,2.0,10.0,59,0.00,,CLR,0.00,VWS V14.00,2013-03-23 01:20:00,
2013-03-22 21:25:00,34.8,22.0,29.93,West,269,1.0,10.0,59,0.00,,CLR,0.00,VWS V14.00,2013-03-23 01:25:00,
2013-03-22 21:30:00,34.8,22.0,29.93,SSW,207,8.0,10.0,59,0.00,,CLR,0.00,VWS V14.00,2013-03-23 01:30:00,
2013-03-22 21:35:00,34.7,22.2,29.93,WNW,283,3.0,10.0,60,0.00,,CLR,0.00,VWS V14.00,2013-03-23 01:35:00,
2013-03-22 21:41:00,34.6,22.2,29.93,WNW,287,4.0,10.0,60,0.00,,CLR,0.00,VWS V14.00,2013-03-23 01:41:00,
2013-03-22 21:47:00,34.6,22.2,29.93,SW,217,5.0,10.0,60,0.00,,CLR,0.00,VWS V14.00,2013-03-23 01:47:00,
2013-03-22 21:52:00,34.4,22.0,29.94,WNW,298,4.0,10.0,60,0.00,,CLR,0.00,VWS V14.00,2013-03-23 01:52:00,
2013-03-22 21:57:00,34.2,21.8,29.94,NW,325,8.0,10.0,60,0.00,,CLR,0.00,VWS V14.00,2013-03-23 01:57:00,
2013-03-22 22:00:00,34.3,21.9,29.94,WNW,294,4.0,10.0,60,0.00,,CLR,0.00,VWS V14.00,2013-03-23 02:00:00,
2013-03-22 22:02:00,34.4,22.0,29.94,WNW,287,5.0,6.0,60,0.00,,CLR,0.00,VWS V14.00,2013-03-23 02:02:00,
2013-03-22 22:07:00,34.4,22.0,29.94,West,263,3.0,7.0,60,0.00,,CLR,0.00,VWS V14.00,2013-03-23 02:07:00,
2013-03-22 22:12:00,34.3,21.9,29.94,WNW,297,3.0,7.0,60,0.00,,CLR,0.00,VWS V14.00,2013-03-23 02:12:00,
2013-03-22 22:17:00,34.1,21.7,29.94,WNW,300,4.0,7.0,60,0.00,,CLR,0.00,VWS V14.00,2013-03-23 02:17:00,
2013-03-22 22:23:00,34.1,21.7,29.94,West,277,2.0,8.0,60,0.00,,CLR,0.00,VWS V14.00,2013-03-23 02:23:00,
2013-03-22 22:28:00,33.9,21.9,29.94,West,269,2.0,8.0,61,0.00,,CLR,0.00,VWS V14.00,2013-03-23 02:28:00,
2013-03-22 22:30:00,33.8,21.8,29.94,West,267,0.0,8.0,61,0.00,,CLR,0.00,VWS V14.00,2013-03-23 02:30:00,
2013-03-22 22:33:00,33.6,21.6,29.94,WNW,287,2.0,4.0,61,0.00,,CLR,0.00,VWS V14.00,2013-03-23 02:33:00,
2013-03-22 22:38:00,33.5,21.5,29.94,WNW,298,2.0,6.0,61,0.00,,CLR,0.00,VWS V14.00,2013-03-23 02:38:00,
2013-03-22 22:43:00,33.5,21.5,29.94,WNW,298,2.0,8.0,61,0.00,,CLR,0.00,VWS V14.00,2013-03-23 02:43:00,
2013-03-22 22:48:00,33.3,21.7,29.94,West,276,1.0,8.0,62,0.00,,CLR,0.00,VWS V14.00,2013-03-23 02:48:00,
2013-03-22 22:54:00,33.1,21.5,29.94,WNW,285,2.0,8.0,62,0.00,,CLR,0.00,VWS V14.00,2013-03-23 02:54:00,
2013-03-22 22:59:00,33.0,21.4,29.94,West,266,1.0,8.0,62,0.00,,CLR,0.00,VWS V14.00,2013-03-23 02:59:00,
2013-03-22 23:00:00,33.0,21.4,29.94,WSW,248,2.0,8.0,62,0.00,,CLR,0.00,VWS V14.00,2013-03-23 03:00:00,
2013-03-22 23:04:00,33.0,21.4,29.94,WNW,293,3.0,6.0,62,0.00,,CLR,0.00,VWS V14.00,2013-03-23 03:04:00,
2013-03-22 23:09:00,33.1,21.5,29.94,WNW,283,5.0,6.0,62,0.00,,CLR,0.00,VWS V14.00,2013-03-23 03:09:00,
2013-03-22 23:15:00,33.2,21.2,29.94,West,276,2.0,7.0,61,0.00,,CLR,0.00,VWS V14.00,2013-03-23 03:15:00,
2013-03-22 23:20:00,33.1,21.1,29.94,NW,310,3.0,7.0,61,0.00,,CLR,0.00,VWS V14.00,2013-03-23 03:20:00,
2013-03-22 23:25:00,33.0,21.4,29.94,WSW,255,2.0,7.0,62,0.00,,CLR,0.00,VWS V14.00,2013-03-23 03:25:00,
2013-03-22 23:30:00,32.9,21.3,29.94,WNW,284,2.0,4.0,62,0.00,,CLR,0.00,VWS V14.00,2013-03-23 03:30:00,
2013-03-22 23:35:00,32.9,20.9,29.94,WNW,292,2.0,7.0,61,0.00,,CLR,0.00,VWS V14.00,2013-03-23 03:35:00,
2013-03-22 23:40:00,32.7,21.1,29.94,WNW,293,2.0,7.0,62,0.00,,CLR,0.00,VWS V14.00,2013-03-23 03:40:00,
2013-03-22 23:46:00,32.7,20.8,29.94,WNW,298,1.0,7.0,61,0.00,,CLR,0.00,VWS V14.00,2013-03-23 03:46:00,
2013-03-22 23:51:00,32.7,20.8,29.94,WNW,303,7.0,8.0,61,0.00,,CLR,0.00,VWS V14.00,2013-03-23 03:51:00,
2013-03-22 23:57:00,32.8,20.9,29.94,NW,323,4.0,11.0,61,0.00,,CLR,0.00,VWS V14.00,2013-03-23 03:57:00,